Main page
METAR-TAF:

METAR-TAF

Airports :

Hobart Regional Airport

Hobart, Oklahoma, United States

latitude: 34-59-22N, longitude: 099-03-09W, elevation: 1561 ft

Current weather observation

The report was made 48 minutes ago, at 22:53 UTC
Wind 9 mph from the East
Temperature 66°F
Humidity 49%
Pressure 30.19 in. Hg
Visibility: 10 miles
Clear sky

METAR: KHBR 232253Z AUTO 10008KT 10SM CLR 19/08 A3019 RMK AO2 SLP215 T01940078

Time: 18:41 (23:41 UTC)


TAF: missing

Weather observations and forecasts of more than 4000 airports (METAR and TAF reports).

The available stations are represented by yellow and red dots on the map.

Hover mouse over dot to see the name of the station.

Then click to see weather observations and forecasts.

To change the map : click on the green buttons with a black cross to zoom in, on the green button with a dash to zoom out, or on the green arrows for adjacent maps.


METAR-TAF: